User: anonymous
Location: Cincinnati Observatory Center
(39.1389°N, 84.4225°W)
Time: 21:49:09
(UTC-04:00)
Language:

HST - Orbit

View from above orbital plane
View from above orbital plane
View from above satellite
View from above satellite

Ground track
Ground track

The orbit data is extracted from the following two-line orbital elements,

1 20580U 90037B   14107.98727721  .00003754  00000-0  24494-3 0  4833
2 20580 028.4705 072.8128 0003234 005.3931 047.1871 15.05188762115631
Epoch (UTC): 17 April 2014 23:41:40
Eccentricity: 0.0003234
inclination: 28.4705°
perigee height: 548 km
apogee height: 553 km
right ascension of ascending node: 72.8128°
argument of perigee: 5.3931°
revolutions per day: 15.05188762
mean anomaly at epoch: 47.1871°
orbit number at epoch: 11563

The dashed part of the orbit path shows where the satellite is in the earth's shadow,  

DLR